Find Starlink 37155

NORAD ID: 68314 Int'l Des: 2026-057 Owner: SPXS Country: US Constellation: starlink operational
LEOCIRCULARRETROGRADE

Live Position

Loading 3D Globe...

About Starlink 37155

Description loading...

Upcoming Passes

Passes for default location (London). Set your location on the main map for personalized predictions.

Altitude History

Loading altitude history...

Two-Line Element Set

1 68314U 26057W 26125.94393326 .00284689 00000-0 18539-2 0 9992
2 68314 97.2860 251.3207 0001712 111.0257 249.1191 15.75098304 7303
Epoch: May 5, 2026 • Age: 7 hours

Current Status

Altitude 354.6 km
Velocity 7.70 km/s
Sub-Earth Point 68.40°N, 147.95°E
Launch Date Mar 20, 2026
Age 0.1 years
Type internet

Technical Details

Classification Payload
Mass 575.00 kg
Dry Mass 530.00 kg
Total Mass 575.00 kg
Length 0.30 m
Diameter 4.10 m
Span 29.00 m
Shape Box + pan
Manufacturer SPXS
Bus Type Starlink V2MO
Phase Status In Orbit
Owner/State SPXS/US

Most Searched